Location: Cactus School
(34.5700°N, 118.0931°W)
Time: 19:37:21
(UTC-07:00)

Transit 4A - Pass Details

Date: 18 April 2024
Orbit: 871 x 971 km, 66.8° (Epoch: 21 May)

Event Time Altitude Azimuth Distance (km) Brightness Sun altitude
Rises 23:41:06 0° 326° (NNW) 3,464 11.7 -41.1°
Reaches altitude 10° 23:43:39 10° 321° (NW) 2,527 10.8 -41.3°
Enters shadow 23:45:27 20° 313° (NW) 1,909 9.9 -41.5°
Maximum altitude 23:49:12 47° 249° (WSW) 1,151 - -41.7°
Drops below altitude 10° 23:54:49 10° 177° (S) 2,555 - -42.1°
Sets 23:57:25 0° 171° (S) 3,506 - -42.3°
